| time (UTC) | temp C | wind direction | speed KPH | gust KPH | rain 1hr cm | rain 24hr cm | rain mn cm | humidity % | barometer mb |
| 20260506034226 | 13 | 198 | 0.0 | 1.6 | 0.00 | 0.00 | 0.00 | 81 | 1006.8 |
| 20260506033227 | 14 | 198 | 0.0 | 3.2 | 0.00 | 0.00 | 0.00 | 79 | 1006.8 |
| 20260506032226 | 14 | 198 | 0.0 | 0.0 | 0.00 | 0.00 | 0.00 | 78 | 1006.8 |
| 20260506031225 | 14 | 198 | 0.0 | 0.0 | 0.00 | 0.00 | 0.00 | 77 | 1006.8 |
| 20260506030226 | 15 | 198 | 0.0 | 3.2 | 0.00 | 0.00 | 0.00 | 76 | 1006.8 |
| 20260506025226 | 15 | 198 | 0.0 | 1.6 | 0.00 | 0.00 | 0.00 | 77 | 1006.8 |
| 20260506024227 | 15 | 198 | 0.0 | 4.8 | 0.00 | 0.00 | 0.00 | 76 | 1006.8 |
| 20260506023224 | 15 | 198 | 0.0 | 1.6 | 0.00 | 0.00 | 0.00 | 75 | 1006.8 |
| 20260506022224 | 15 | 198 | 0.0 | 1.6 | 0.00 | 0.00 | 0.00 | 73 | 1006.8 |
| 20260506021226 | 16 | 198 | 0.0 | 4.8 | 0.00 | 0.00 | 0.00 | 72 | 1006.8 |
| 20260506020226 | 16 | 198 | 0.0 | 0.0 | 0.00 | 0.00 | 0.00 | 71 | 1006.4 |
| 20260506015226 | 16 | 198 | 0.0 | 1.6 | 0.00 | 0.00 | 0.00 | 70 | 1006.4 |
| 20260506014442 | 16 | 198 | 0.0 | 4.8 | 0.00 | 0.00 | 0.00 | 69 | 1006.4 |
| 20260506013442 | 16 | 198 | 0.0 | 4.8 | 0.00 | 0.00 | 0.00 | 68 | 1006.4 |
| 20260506012226 | 16 | 198 | 0.0 | 4.8 | 0.00 | 0.00 | 0.00 | 66 | 1006.4 |
| 20260506011224 | 17 | 198 | 0.0 | 4.8 | 0.00 | 0.00 | 0.00 | 65 | 1006.4 |
| 20260506010224 | 16 | 197 | 1.6 | 6.4 | 0.00 | 0.00 | 0.00 | 65 | 1006.4 |
| 20260506005224 | 16 | 196 | 0.0 | 3.2 | 0.00 | 0.00 | 0.00 | 65 | 1006.1 |
| 20260506004224 | 16 | 196 | 0.0 | 0.0 | 0.00 | 0.00 | 0.00 | 66 | 1006.1 |
| 20260506003226 | 16 | 196 | 0.0 | 3.2 | 0.00 | 0.00 | 0.00 | 66 | 1005.8 |
| 20260506002226 | 16 | 196 | 0.0 | 3.2 | 0.00 | 0.00 | 0.00 | 66 | 1005.4 |
| 20260506001225 | 16 | 196 | 0.0 | 0.0 | 0.00 | 0.00 | 0.00 | 64 | 1005.4 |
| 20260506000441 | 17 | 196 | 0.0 | 1.6 | 0.00 | 0.00 | 0.00 | 63 | 1005.4 |
| 20260505235225 | 16 | 196 | 0.0 | 0.0 | 0.00 | 0.00 | 0.00 | 63 | 1005.4 |
| 20260505234225 | 16 | 196 | 0.0 | 0.0 | 0.00 | 0.00 | 0.00 | 62 | 1005.1 |
| 20260505233224 | 17 | 196 | 0.0 | 3.2 | 0.00 | 0.00 | 0.00 | 61 | 1005.1 |
| 20260505232224 | 16 | 196 | 0.0 | 0.0 | 0.00 | 0.00 | 0.00 | 61 | 1005.1 |
| 20260505231224 | 16 | 196 | 0.0 | 3.2 | 0.00 | 0.00 | 0.00 | 61 | 1004.7 |
| 20260505230227 | 16 | 196 | 0.0 | 1.6 | 0.00 | 0.00 | 0.00 | 61 | 1004.7 |
| 20260505225224 | 16 | 196 | 0.0 | 0.0 | 0.00 | 0.00 | 0.00 | 60 | 1004.4 |
| 20260505224225 | 16 | 196 | 0.0 | 0.0 | 0.00 | 0.00 | 0.00 | 60 | 1004.4 |
| 20260505223228 | 16 | 196 | 0.0 | 1.6 | 0.00 | 0.00 | 0.00 | 60 | 1004.4 |
| 20260505222224 | 16 | 196 | 0.0 | 4.8 | 0.00 | 0.00 | 0.00 | 59 | 1004.1 |
| 20260505221439 | 17 | 196 | 0.0 | 4.8 | 0.00 | 0.00 | 0.00 | 59 | 1004.1 |
| 20260505220225 | 17 | 196 | 0.0 | 4.8 | 0.00 | 0.00 | 0.00 | 59 | 1004.1 |
| 20260505215224 | 16 | 198 | 0.0 | 0.0 | 0.00 | 0.00 | 0.00 | 60 | 1003.7 |
| 20260505214225 | 16 | 198 | 0.0 | 3.2 | 0.00 | 0.00 | 0.00 | 59 | 1003.7 |
| 20260505213440 | 17 | 198 | 0.0 | 3.2 | 0.00 | 0.00 | 0.00 | 58 | 1003.7 |
| 20260505212227 | 17 | 198 | 0.0 | 8.0 | 0.00 | 0.00 | 0.00 | 58 | 1003.7 |
| 20260505211226 | 17 | 207 | 3.2 | 8.0 | 0.00 | 0.00 | 0.00 | 58 | 1003.4 |
| 20260505210224 | 17 | 190 | 0.0 | 9.7 | 0.00 | 0.00 | 0.00 | 57 | 1003.0 |
| 20260505205227 | 17 | 223 | 0.0 | 17.7 | 0.00 | 0.00 | 0.00 | 56 | 1003.0 |
| 20260505204227 | 17 | 167 | 6.4 | 14.5 | 0.00 | 0.00 | 0.00 | 56 | 1003.0 |
| 20260505203226 | 17 | 198 | 4.8 | 9.7 | 0.00 | 0.00 | 0.00 | 55 | 1003.0 |
| 20260505202228 | 17 | 175 | 3.2 | 11.3 | 0.00 | 0.00 | 0.00 | 55 | 1002.7 |
| 20260505201226 | 18 | 199 | 0.0 | 16.1 | 0.00 | 0.00 | 0.00 | 54 | 1002.7 |
| 20260505200227 | 18 | 188 | 8.0 | 11.3 | 0.00 | 0.00 | 0.00 | 53 | 1002.7 |
| 20260505195441 | 18 | 185 | 4.8 | 6.4 | 0.00 | 0.00 | 0.00 | 52 | 1002.4 |
| 20260505194226 | 18 | 234 | 0.0 | 14.5 | 0.00 | 0.00 | 0.00 | 51 | 1002.7 |
| 20260505193226 | 18 | 236 | 3.2 | 11.3 | 0.00 | 0.00 | 0.00 | 50 | 1002.4 |
| 20260505192229 | 19 | 165 | 1.6 | 11.3 | 0.00 | 0.00 | 0.00 | 49 | 1002.4 |
| 20260505191442 | 19 | 209 | 0.0 | 11.3 | 0.00 | 0.00 | 0.00 | 49 | 1002.7 |
| 20260505190225 | 20 | 217 | 0.0 | 12.9 | 0.00 | 0.00 | 0.00 | 48 | 1002.4 |
| 20260505185226 | 20 | 220 | 0.0 | 11.3 | 0.00 | 0.00 | 0.00 | 47 | 1002.4 |
| 20260505184225 | 20 | 243 | 0.0 | 12.9 | 0.00 | 0.00 | 0.00 | 47 | 1002.4 |
| 20260505183226 | 20 | 194 | 6.4 | 11.3 | 0.00 | 0.00 | 0.00 | 47 | 1002.4 |
| 20260505182227 | 21 | 184 | 0.0 | 12.9 | 0.00 | 0.00 | 0.00 | 46 | 1002.4 |
| 20260505181225 | 21 | 178 | 3.2 | 11.3 | 0.00 | 0.00 | 0.00 | 45 | 1002.4 |
| 20260505180225 | 21 | 214 | 0.0 | 8.0 | 0.00 | 0.00 | 0.00 | 45 | 1002.4 |
| 20260505175225 | 22 | 194 | 0.0 | 17.7 | 0.00 | 0.00 | 0.00 | 44 | 1002.4 |
| 20260505174227 | 22 | 202 | 0.0 | 12.9 | 0.00 | 0.00 | 0.00 | 43 | 1002.4 |
| 20260505173226 | 22 | 193 | 1.6 | 16.1 | 0.00 | 0.00 | 0.00 | 43 | 1002.4 |
| 20260505172225 | 22 | 209 | 0.0 | 9.7 | 0.00 | 0.00 | 0.00 | 43 | 1002.4 |
| 20260505171225 | 23 | 214 | 0.0 | 9.7 | 0.00 | 0.00 | 0.00 | 42 | 1002.4 |
| 20260505170225 | 23 | 197 | 0.0 | 11.3 | 0.00 | 0.00 | 0.00 | 41 | 1002.4 |
| 20260505165440 | 23 | 183 | 0.0 | 9.7 | 0.00 | 0.00 | 0.00 | 39 | 1002.4 |
| 20260505164224 | 23 | 183 | 0.0 | 9.7 | 0.00 | 0.00 | 0.00 | 39 | 1002.4 |
| 20260505163225 | 24 | 214 | 3.2 | 14.5 | 0.00 | 0.00 | 0.00 | 38 | 1002.4 |
| 20260505162225 | 25 | 195 | 0.0 | 9.7 | 0.00 | 0.00 | 0.00 | 36 | 1002.4 |
| 20260505161224 | 25 | 191 | 8.0 | 9.7 | 0.00 | 0.00 | 0.00 | 35 | 1002.7 |
| 20260505160225 | 25 | 197 | 0.0 | 17.7 | 0.00 | 0.00 | 0.00 | 34 | 1002.7 |
| 20260505153228 | 26 | 212 | 4.8 | 16.1 | 0.00 | 0.00 | 0.00 | 33 | 1002.7 |
| 20260505152226 | 27 | 192 | 0.0 | 17.7 | 0.00 | 0.00 | 0.00 | 31 | 1002.7 |
| 20260505151227 | 27 | 196 | 0.0 | 17.7 | 0.00 | 0.00 | 0.00 | 30 | 1002.7 |
| 20260505150224 | 27 | 200 | 0.0 | 9.7 | 0.00 | 0.00 | 0.00 | 29 | 1002.7 |
| 20260505140224 | 28 | 232 | 1.6 | 9.7 | 0.00 | 0.00 | 0.00 | 25 | 1003.7 |
| 20260505130226 | 27 | 176 | 0.0 | 6.4 | 0.00 | 0.00 | 0.00 | 26 | 1004.4 |
| 20260505124226 | 27 | 237 | 0.0 | 4.8 | 0.00 | 0.00 | 0.00 | 31 | 1004.7 |
| 20260505123229 | 26 | 238 | 0.0 | 19.3 | 0.00 | 0.00 | 0.00 | 34 | 1005.1 |
| 20260505122440 | 26 | 220 | 0.0 | 12.9 | 0.00 | 0.00 | 0.00 | 36 | 1005.4 |
| 20260505121227 | 26 | 189 | 0.0 | 6.4 | 0.00 | 0.00 | 0.00 | 35 | 1005.4 |
| 20260505120225 | 26 | 180 | 0.0 | 17.7 | 0.00 | 0.00 | 0.00 | 35 | 1005.8 |
| 20260505115226 | 26 | 196 | 8.0 | 16.1 | 0.00 | 0.00 | 0.00 | 36 | 1005.8 |
| 20260505114440 | 25 | 208 | 0.0 | 12.9 | 0.00 | 0.00 | 0.00 | 36 | 1005.8 |
| 20260505113227 | 25 | 229 | 0.0 | 11.3 | 0.00 | 0.00 | 0.00 | 38 | 1005.8 |
| 20260505112227 | 24 | 243 | 0.0 | 14.5 | 0.00 | 0.00 | 0.00 | 39 | 1006.1 |
| 20260505111224 | 24 | 198 | 9.7 | 12.9 | 0.00 | 0.00 | 0.00 | 39 | 1006.1 |
| 20260505110440 | 23 | 238 | 1.6 | 8.0 | 0.00 | 0.00 | 0.00 | 41 | 1006.4 |
| 20260505101439 | 22 | 200 | 8.0 | 12.9 | 0.00 | 0.00 | 0.00 | 43 | 1006.8 |
| 20260505100441 | 22 | 195 | 0.0 | 9.7 | 0.00 | 0.00 | 0.00 | 45 | 1007.1 |
| 20260505095225 | 21 | 175 | 0.0 | 6.4 | 0.00 | 0.00 | 0.00 | 46 | 1007.1 |
| 20260505094227 | 21 | 177 | 0.0 | 3.2 | 0.00 | 0.00 | 0.00 | 47 | 1007.5 |
| 20260505093225 | 21 | 177 | 0.0 | 1.6 | 0.00 | 0.00 | 0.00 | 48 | 1007.5 |
| 20260505092225 | 21 | 177 | 0.0 | 0.0 | 0.00 | 0.00 | 0.00 | 49 | 1007.5 |
| 20260505091226 | 20 | 177 | 0.0 | 11.3 | 0.00 | 0.00 | 0.00 | 48 | 1007.5 |
| 20260505090224 | 20 | 207 | 0.0 | 4.8 | 0.00 | 0.00 | 0.00 | 50 | 1007.8 |
| 20260505085227 | 20 | 207 | 0.0 | 1.6 | 0.00 | 0.00 | 0.00 | 52 | 1007.8 |
| 20260505084225 | 20 | 207 | 0.0 | 6.4 | 0.00 | 0.00 | 0.00 | 53 | 1007.8 |
| 20260505083226 | 20 | 207 | 0.0 | 0.0 | 0.00 | 0.00 | 0.00 | 54 | 1007.8 |
| 20260505082225 | 19 | 207 | 0.0 | 1.6 | 0.00 | 0.00 | 0.00 | 53 | 1007.8 |
| 20260505081226 | 18 | 207 | 0.0 | 3.2 | 0.00 | 0.00 | 0.00 | 57 | 1007.8 |
| 20260505080227 | 17 | 207 | 0.0 | 0.0 | 0.00 | 0.00 | 0.00 | 59 | 1008.1 |
| 20260505075227 | 17 | 207 | 0.0 | 0.0 | 0.00 | 0.00 | 0.00 | 61 | 1008.1 |
| 20260505074440 | 17 | 207 | 0.0 | 0.0 | 0.00 | 0.00 | 0.00 | 61 | 1008.1 |
| 20260505073225 | 16 | 207 | 0.0 | 0.0 | 0.00 | 0.00 | 0.00 | 61 | 1008.1 |
| 20260505072228 | 16 | 207 | 0.0 | 0.0 | 0.00 | 0.00 | 0.00 | 61 | 1008.1 |
| 20260505071224 | 16 | 207 | 0.0 | 0.0 | 0.00 | 0.00 | 0.00 | 63 | 1008.1 |
| 20260505070227 | 16 | 207 | 0.0 | 0.0 | 0.00 | 0.00 | 0.00 | 63 | 1008.1 |
| 20260505065226 | 15 | 207 | 0.0 | 0.0 | 0.00 | 0.00 | 0.00 | 63 | 1008.1 |
| 20260505064226 | 15 | 207 | 0.0 | 0.0 | 0.00 | 0.00 | 0.00 | 65 | 1008.1 |
| 20260505063226 | 14 | 207 | 0.0 | 1.6 | 0.00 | 0.00 | 0.00 | 66 | 1008.1 |
| 20260505062439 | 14 | 207 | 0.0 | 1.6 | 0.00 | 0.00 | 0.00 | 66 | 1008.1 |
| 20260505061223 | 14 | 207 | 0.0 | 1.6 | 0.00 | 0.00 | 0.00 | 66 | 1008.1 |
| 20260505060226 | 13 | 207 | 0.0 | 0.0 | 0.00 | 0.00 | 0.00 | 67 | 1008.1 |
| 20260505055440 | 13 | 207 | 0.0 | 0.0 | 0.00 | 0.00 | 0.00 | 69 | 1008.1 |
| 20260505054227 | 12 | 207 | 0.0 | 0.0 | 0.00 | 0.00 | 0.00 | 73 | 1008.5 |
| 20260505053226 | 12 | 207 | 0.0 | 0.0 | 0.00 | 0.00 | 0.00 | 73 | 1008.1 |
| 20260505052227 | 11 | 207 | 0.0 | 0.0 | 0.00 | 0.00 | 0.00 | 74 | 1008.1 |
| 20260505051226 | 11 | 207 | 0.0 | 0.0 | 0.00 | 0.00 | 0.00 | 77 | 1008.1 |
| 20260505050227 | 11 | 207 | 0.0 | 0.0 | 0.00 | 0.00 | 0.00 | 80 | 1008.1 |
| 20260505041225 | 8 | 207 | 0.0 | 0.0 | 0.00 | 0.00 | 0.00 | 84 | 1008.1 |
| 20260505040226 | 8 | 207 | 0.0 | 0.0 | 0.00 | 0.00 | 0.00 | 84 | 1008.1 |
| 20260505035225 | 8 | 207 | 0.0 | 0.0 | 0.00 | 0.00 | 0.00 | 84 | 1008.1 |